TimeEDT,TemperatureF,Dew PointF,Humidity,Sea Level PressureIn,VisibilityMPH,Wind Direction,Wind SpeedMPH,Gust SpeedMPH,PrecipitationIn,Events,Conditions,WindDirDegrees,DateUTC
12:34 AM,73.4,71.6,94,29.84,4.0,East,5.8,-,N/A,,Overcast,100,2012-10-02 04:34:00
12:53 AM,73.0,72.0,96,29.83,4.0,ESE,5.8,-,N/A,,Overcast,110,2012-10-02 04:53:00
1:34 AM,73.4,73.4,100,29.84,5.0,ESE,8.1,-,N/A,,Overcast,120,2012-10-02 05:34:00
1:53 AM,73.9,73.0,97,29.82,3.0,ESE,9.2,-,N/A,,Overcast,120,2012-10-02 05:53:00
3:53 AM,75.0,73.9,96,29.80,7.0,SE,5.8,-,N/A,,Overcast,130,2012-10-02 07:53:00
4:26 AM,75.2,73.4,94,29.81,10.0,SSE,6.9,-,0.00,,Overcast,160,2012-10-02 08:26:00
4:53 AM,75.0,73.0,94,29.79,10.0,SE,4.6,-,0.00,,Mostly Cloudy,140,2012-10-02 08:53:00
5:08 AM,73.4,73.4,100,29.81,10.0,SE,4.6,-,N/A,,Mostly Cloudy,130,2012-10-02 09:08:00
5:42 AM,73.4,73.4,100,29.81,7.0,ESE,4.6,-,N/A,,Mostly Cloudy,110,2012-10-02 09:42:00
5:50 AM,73.4,73.4,100,29.81,7.0,ESE,5.8,-,N/A,,Mostly Cloudy,120,2012-10-02 09:50:00
5:53 AM,73.9,73.0,97,29.80,7.0,ESE,5.8,-,N/A,,Mostly Cloudy,120,2012-10-02 09:53:00
6:42 AM,73.4,73.4,100,29.82,10.0,ESE,6.9,-,N/A,,Mostly Cloudy,120,2012-10-02 10:42:00
6:50 AM,73.4,73.4,100,29.82,10.0,ESE,5.8,-,N/A,,Mostly Cloudy,120,2012-10-02 10:50:00
6:53 AM,73.9,73.0,97,29.81,10.0,ESE,5.8,-,N/A,,Mostly Cloudy,120,2012-10-02 10:53:00
7:03 AM,73.4,73.4,100,29.83,9.0,SE,4.6,-,N/A,,Mostly Cloudy,140,2012-10-02 11:03:00
7:26 AM,73.4,73.4,100,29.83,9.0,ESE,3.5,-,N/A,,Overcast,120,2012-10-02 11:26:00
7:53 AM,73.9,73.0,97,29.82,7.0,SE,5.8,-,N/A,,Overcast,140,2012-10-02 11:53:00
8:34 AM,75.2,73.4,94,29.85,10.0,SE,6.9,-,0.01,,Overcast,140,2012-10-02 12:34:00
8:48 AM,75.2,75.2,100,29.86,10.0,SE,6.9,-,0.01,,Overcast,140,2012-10-02 12:48:00
8:53 AM,75.9,75.0,97,29.84,10.0,SE,6.9,-,0.01,,Overcast,140,2012-10-02 12:53:00
9:09 AM,75.2,75.2,100,29.86,10.0,SSE,6.9,-,N/A,,Overcast,150,2012-10-02 13:09:00
9:53 AM,77.0,75.9,96,29.85,6.0,SSE,5.8,-,0.01,Rain,Light Rain,160,2012-10-02 13:53:00
9:58 AM,77.0,75.2,94,29.87,2.0,South,8.1,-,0.06,Rain,Light Rain,180,2012-10-02 13:58:00
10:02 AM,77.0,75.2,94,29.86,0.8,South,8.1,-,0.17,Rain,Heavy Rain,170,2012-10-02 14:02:00
10:09 AM,77.0,75.2,94,29.86,5.0,SSE,5.8,-,0.19,Rain,Light Rain,160,2012-10-02 14:09:00
10:53 AM,78.1,75.9,93,29.84,5.0,South,6.9,-,0.19,,Overcast,190,2012-10-02 14:53:00
11:00 AM,78.8,77.0,94,29.86,10.0,South,6.9,-,N/A,,Mostly Cloudy,180,2012-10-02 15:00:00
11:07 AM,80.6,77.0,89,29.86,10.0,South,8.1,-,N/A,,Mostly Cloudy,180,2012-10-02 15:07:00
11:20 AM,80.6,75.2,84,29.87,10.0,SSW,9.2,-,N/A,,Mostly Cloudy,210,2012-10-02 15:20:00
11:34 AM,80.6,75.2,84,29.87,10.0,SSW,9.2,-,N/A,,Mostly Cloudy,210,2012-10-02 15:34:00
11:53 AM,82.9,75.0,77,29.85,10.0,SSW,8.1,-,N/A,,Mostly Cloudy,210,2012-10-02 15:53:00
12:27 PM,84.2,73.4,70,29.87,10.0,South,9.2,-,N/A,,Scattered Clouds,190,2012-10-02 16:27:00
12:53 PM,87.1,73.0,63,29.84,10.0,SW,10.4,-,N/A,,Mostly Cloudy,230,2012-10-02 16:53:00
1:53 PM,86.0,71.1,61,29.83,10.0,SSW,10.4,20.7,N/A,,Scattered Clouds,200,2012-10-02 17:53:00
2:53 PM,87.1,71.1,59,29.83,10.0,SSW,6.9,-,N/A,,Scattered Clouds,200,2012-10-02 18:53:00
3:53 PM,89.1,70.0,53,29.83,10.0,South,6.9,-,N/A,,Partly Cloudy,180,2012-10-02 19:53:00
4:53 PM,84.9,73.9,69,29.85,10.0,SSE,8.1,-,N/A,,Scattered Clouds,160,2012-10-02 20:53:00
5:21 PM,82.4,73.4,74,29.88,10.0,South,11.5,-,N/A,Thunderstorm,Partly Cloudy,170,2012-10-02 21:21:00
5:51 PM,80.6,75.2,84,29.88,10.0,SSE,8.1,-,0.00,Rain-Thunderstorm,Light Rain,160,2012-10-02 21:51:00
5:52 PM,81.0,75.0,82,29.86,10.0,SSE,8.1,-,0.00,Rain-Thunderstorm,Light Rain,160,2012-10-02 21:52:00
6:12 PM,78.8,75.2,89,29.89,6.0,South,8.1,-,0.03,Rain,Light Rain,170,2012-10-02 22:12:00
7:53 PM,77.0,75.0,94,29.91,10.0,South,6.9,-,N/A,,Scattered Clouds,180,2012-10-02 23:53:00
8:53 PM,75.9,73.9,94,29.93,10.0,South,6.9,-,N/A,,Partly Cloudy,180,2012-10-03 00:53:00
9:53 PM,75.0,73.0,94,29.94,10.0,South,6.9,-,N/A,,Clear,170,2012-10-03 01:53:00
10:53 PM,73.9,73.0,97,29.96,10.0,SSE,4.6,-,N/A,,Partly Cloudy,160,2012-10-03 02:53:00
11:07 PM,73.4,73.4,100,29.98,10.0,South,4.6,-,N/A,,Mostly Cloudy,180,2012-10-03 03:07:00
11:53 PM,75.0,73.9,96,29.96,8.0,South,8.1,-,N/A,,Overcast,170,2012-10-03 03:53:00